Regional Weather Roundup
Issued by NWS Wilmington, NC

Home | Current Version | Previous Version | Text Only | Print | Product List | Glossary On
Versions: 1 2 3 4 5 6 7 8 9 10 11 12 13 14 15 16 17 18 19 20 21 22 23 24 25 26 27 28 29 30 31 32 33 34 35 36 37 38 39 40 41 42 43 44 45 46 47 48 49 50
000
ASUS42 KILM 040613
RWRILM
RWRILM
REGIONAL HOURLY WEATHER ROUNDUP
NATIONAL WEATHER SERVICE WILMINGTON NC
200 AM EDT MON MAY 04 2015

NOTE: "FAIR" INDICATES FEW OR NO CLOUDS BELOW 12,000 FEET WITH NO
SIGNIFICANT WEATHER AND/OR OBSTRUCTIONS TO VISIBILITY.

...............WFO WILMINGTON COUNTY WARNING AREA...............

......COASTAL NC AND SC COUNTIES......

CITY           SKY/WX    TMP DP  RH WIND       PRES   REMARKS
WILMINGTON     CLEAR     56  53  90 CALM      30.25S
N MYRTLE BEACH CLEAR     66  59  78 S6        30.24S
MYRTLE BEACH   CLEAR     64  57  77 CALM      30.26F

......INLAND NC AND SC COUNTIES.......

CITY           SKY/WX    TMP DP  RH WIND       PRES   REMARKS
LUMBERTON      PTCLDY    55  52  89 CALM      30.24S
ELIZABETHTOWN  CLEAR     57  52  81 CALM      30.25S
WHITEVILLE     PTCLDY    55  53  90 CALM      30.24S
FLORENCE       CLEAR     61  57  87 S3        30.24S
DARLINGTON     CLEAR     61  55  82 S5        30.25S

....................REST OF NORTH CAROLINA......................

.........EASTERN NC.........

CITY           SKY/WX    TMP DP  RH WIND       PRES   REMARKS
CAPE HATTERAS  PTCLDY    59  51  75 W7        30.25S
JACKSONVILLE   CLEAR     50  45  81 CALM      30.26S
MOREHEAD CITY  CLEAR     58  57  97 CALM      30.26S
KENANSVILLE    CLEAR     50  47  92 CALM      30.27S
NEW BERN       CLEAR     57  52  83 CALM      30.26S
ELIZABETH CITY CLEAR     56  49  77 SW8       30.23S

.........CENTRAL NC.........

CITY           SKY/WX    TMP DP  RH WIND       PRES   REMARKS
RALEIGH DURHAM PTCLDY    59  50  72 SW8       30.25R
ROCKY MOUNT    CLEAR     56  47  71 S3        30.24S
ROANOKE RAPIDS NOT AVBL
FAYETTEVILLE   CLEAR     58  50  75 S3        30.24S
HOFFMAN        PTCLDY    59  56  88 SW2       30.28R

.........WESTERN NC.........

CITY           SKY/WX    TMP DP  RH WIND       PRES   REMARKS
CHARLOTTE      PTCLDY    58  48  69 S6        30.23R
GREENSBORO     MOCLDY    62  48  60 S8        30.22R
HICKORY        NOT AVBL
BOONE          NOT AVBL
ASHEVILLE      NOT AVBL

.....................REST OF SOUTH CAROLINA.....................

.........EASTERN SC.........

CITY           SKY/WX    TMP DP  RH WIND       PRES   REMARKS
CHARLESTON     PTCLDY    63  59  87 CALM      30.23F
BEAUFORT MCAS  CLEAR     61  58  90 CALM      30.23F
HILTON HEAD    CLEAR     63  61  94 CALM      30.24F

.........CENTRAL SC.........

CITY           SKY/WX    TMP DP  RH WIND       PRES   REMARKS
COLUMBIA       PTCLDY    63  53  70 E3        30.22S
ORANGEBURG     CLEAR     59  53  80 CALM      30.24S
SUMTER SHAW    CLEAR     60  54  80 CALM      30.22S

.........WESTERN SC.........

CITY           SKY/WX    TMP DP  RH WIND       PRES   REMARKS
GREENVILLE     NOT AVBL
ROCK HILL      CLEAR     61  50  67 S3        30.23S
ANDERSON       CLEAR     57  53  86 CALM      30.21S
CLEMSON        NOT AVBL
GREENWOOD      CLEAR     56  53  90 CALM      30.23R


...................COASTAL AND OFFSHORE REPORTS..................

................LOCAL PIERS AND NC RESERVE................


STATION/POSITION TIME  SKY/WX   TEMP    WIND        PRES    VSBY
                                AIR SEA DIR/SP/G
                 (UTC)          (F)     (DEG/KT/KT) (MB)    (MI)
JOHNY MRCER PIER 0512            65 68  230/  4/  5 1023.9R
NC RESRV MASNBRO NOT AVBL
OCEAN CREST PIER 0602            67 69  170/  3/  4 1023.5F
SPRINGMAID  PIER 0500            69 69  160/  7/  9 1024.2S


................COASTAL AND OFFSHORE BUOYS................


STATION/POSITION TIME  SKY/WX   TEMP    WIND        PRES    VSBY
                                AIR SEA DIR/SP/G
                 (UTC)          (F)     (DEG/KT/KT) (MB)    (MI)
DIMNDSHOAL 41025 0550            63 60  260/  6/  6 1024.3F
WVE H/P(F/S)=  4/11 SWL H/P/D(F/S/D)=  3/ 60/11

CAPE LOOKOUT     0600            67     230/  6/  7 1024.2F
ONSLOW BAY 41036 NOT AVBL
5 WRITEBCH 41038 0508            68 67  200/  4/  6 1024.4S
MASONBORO  41110 0519               67                N/A
WVE H/P(F/S)=  2/13 WND WVE H/P(F/S)=  2/10 SWL H/P/D(F/S/D)=  2/100/13

WILM HARBR 41108 0511               67                N/A
WVE H/P(F/S)=  2/11 WND WVE H/P(F/S)=  2/10 SWL H/P/D(F/S/D)=  2/140/11

27WRITEBCH 41037 0500            69 71  190/  8/  8   N/A
FRYING PAN 41013 0550            73 72  190/  6/  6 1025.1F
WVE H/P(F/S)=  4/11 WND WVE H/P(F/S)=  2/ 4 SWL H/P/D(F/S/D)=  3/ 80/11

SUNST NRSH 41024 0508            68     200/  4/  6 1024.3S
CAPRS NRSH 41029 0508            69     180/  4/  4 1024.0F
EDISTO     41004 0550            73 73  150/ 10/ 12 1023.5F
WVE H/P(F/S)=  3/11 WND WVE H/P(F/S)=  2/ 3 SWL H/P/D(F/S/D)=  2/11



..........OFFSHORE BUOYS BEYOND 100 NM OFFSHORE...........
.....IN A TRIANGLE---HAT TO BERMUDA TO BAHAMAS TO HAT.....


STATION/POSITION TIME  SKY/WX   TEMP    WIND        PRES    VSBY
                                AIR SEA DIR/SP/G
                 (UTC)          (F)     (DEG/KT/KT) (MB)    (MI)
150E HAT   41001 NOT AVBL
W BERMUDA  41048 0550            67 70   20/ 12/ 14 1022.8S
WVE H/P(F/S)=  8/ 9 WND WVE H/P(F/S)=  2/ 4 SWL H/P/D(F/S/D)=  7/360/ 9

ATLANTIC S 41049 0550            74 77   10/  6/  8 1020.0F
WVE H/P(F/S)=  7/ 9 WND WVE H/P(F/S)=  2/ 4 SWL H/P/D(F/S/D)=  7/290/ 9

E BAHAMAS  41046 0550            78 80  100/ 16/ 17 1017.1F
WVE H/P(F/S)=  7/10 WND WVE H/P(F/S)=  3/ 6 SWL H/P/D(F/S/D)=  5/340/10

NE BAHAMAS 41047 0550            72 75   70/ 14/ 16 1020.2F
WVE H/P(F/S)=  9/11 WND WVE H/P(F/S)=  3/ 5 SWL H/P/D(F/S/D)=  8/ 20/11

120E CANVRL41010 0520            72 78   70/ 16/ 19 1022.3F

END


USA.gov is the U.S. government's official web portal to all federal, state and local government web resources and services.